Altus AFB, OK

10:25 AM CST on February 27, 2017 (GMT -0600)
Altus Air Force Base

Weather History for KLTS - October, 2013

Change the Weather History Date:

Friday, October 11, 2013

  Actual Average Record
Temperature  
Mean Temperature 74 °F -  
Max Temperature 89 °F 75 °F 96 °F (2015)
Min Temperature 57 °F 52 °F 46 °F (2006)
Cooling Degree Days 9    
Growing Degree Days 24 (Base 50)    
Moisture  
Dew Point 47 °F    
Average Humidity 50    
Maximum Humidity 100    
Minimum Humidity 14    
Precipitation  
Precipitation 0.00 in - - ()
Sea Level Pressure  
Sea Level Pressure 29.82 in    
Wind  
Wind Speed 11 mph (South)    
Max Wind Speed 20 mph    
Max Gust Speed 29 mph    
Visibility 10 miles    
Events      
Averages and records for this station are not official NWS values.
T = Trace of Precipitation, MM = Missing Value Source: NWS Daily Summary

Daily Weather History Graph

Daily Weather History Graph

Search for Another Location

Airport or City:

Trip Planner

Search our weather history database for the weather conditions in past years. The results will help you decide how hot, cold, wet, or windy it might be!

Date:

Astronomy

Oct. 11, 2013 Rise Set
Actual Time 7:39 AM CDT 7:07 PM CDT
Civil Twilight 7:14 AM CDT 7:32 PM CDT
Nautical Twilight 6:45 AM CDT 8:01 PM CDT
Astronomical Twilight 6:15 AM CDT 8:30 PM CDT
Moon 2:15 PM CDT (10/11) No Moon Set
Length of Visible Light 12h 18m
Length of Day
11h 27m
Waxing Crescent, 47% of the Moon is Illuminated
Oct 11
Waxing Crescent
Oct 11
First Quarter
Oct 18
Full
Oct 26
Last Quarter
Nov 3
New

Hourly Weather History & Observations

Time (CDT) Temp. Dew Point Humidity Pressure Visibility Wind Dir Wind Speed Gust Speed Precip Events Conditions
12:56 AM 68.0 °F 59.0 °F 73% 29.79 in 10.0 mi SE 16.1 mph 25.3 mph N/A   Clear
1:56 AM 68.0 °F 60.8 °F 78% 29.80 in 10.0 mi SE 11.5 mph - N/A   Mostly Cloudy
2:56 AM 66.2 °F 60.8 °F 83% 29.81 in 10.0 mi ESE 6.9 mph - N/A   Partly Cloudy
3:56 AM 64.4 °F 60.8 °F 88% 29.80 in 10.0 mi ESE 9.2 mph - N/A   Clear
4:56 AM 64.4 °F 60.8 °F 88% 29.81 in 10.0 mi ESE 10.4 mph - N/A   Clear
5:56 AM 62.6 °F 60.8 °F 94% 29.81 in 10.0 mi SE 8.1 mph - N/A   Clear
6:56 AM 62.6 °F 60.8 °F 94% 29.82 in 10.0 mi SSE 8.1 mph - N/A   Clear
7:56 AM 60.8 °F 60.8 °F 100% 29.84 in 10.0 mi South 6.9 mph - N/A   Clear
8:56 AM 64.4 °F 62.6 °F 94% 29.86 in 10.0 mi South 6.9 mph - N/A   Clear
9:56 AM 71.6 °F 57.2 °F 60% 29.86 in 10.0 mi SSW 9.2 mph - N/A   Clear
10:56 AM 77.0 °F 41.0 °F 28% 29.86 in 10.0 mi SSW 9.2 mph - N/A   Clear
11:56 AM 80.6 °F 39.2 °F 23% 29.86 in 10.0 mi SSW 16.1 mph - N/A   Clear
12:56 PM 82.4 °F 32.0 °F 16% 29.84 in 10.0 mi SW 16.1 mph - N/A   Clear
1:56 PM 86.0 °F 33.8 °F 15% 29.81 in 10.0 mi WSW 19.6 mph 25.3 mph N/A   Clear
2:56 PM 87.8 °F 32.0 °F 14% 29.79 in 10.0 mi SW 18.4 mph 27.6 mph N/A   Clear
3:56 PM 89.6 °F 33.8 °F 14% 29.77 in 10.0 mi SW 16.1 mph 28.8 mph N/A   Clear
4:56 PM 89.6 °F 35.6 °F 15% 29.76 in 10.0 mi SW 18.4 mph 23.0 mph N/A   Clear
5:56 PM 87.8 °F 35.6 °F 16% 29.77 in 10.0 mi SSW 13.8 mph 20.7 mph N/A   Clear
6:56 PM 82.4 °F 37.4 °F 20% 29.79 in 10.0 mi SW 6.9 mph - N/A   Clear
7:56 PM 73.4 °F 37.4 °F 27% 29.81 in 10.0 mi South 6.9 mph - N/A   Clear
8:56 PM 77.0 °F 35.6 °F 22% 29.83 in 10.0 mi SW 5.8 mph - N/A   Clear
9:56 PM 73.4 °F 37.4 °F 27% 29.84 in 10.0 mi SW 2.3 mph - N/A   Clear
10:56 PM 59.0 °F 44.6 °F 59% 29.86 in 10.0 mi East 2.3 mph - N/A   Clear
11:56 PM 57.2 °F 44.6 °F 63% 29.86 in 10.0 mi NNE 4.6 mph - N/A   Clear